Сагареджо

Грузия     41°44′12″N   45°19′33″E
темп.,
°C
ветер,
м/с
пор.,
м/с
влажн.,
%
обл.,
%
осадки,
мм/ч
давл.,
гПа
погр.,
м
22 апреля, чт
чт2201:00+13всв1290100 2.8 101841
04:00+13всв2390100 5.7 1018109
07:00+12св269050 1.9 1018230
10:00+15вюв5776100 3.5 10181032
13:00+17юв346869 0.7 10181032
16:00+17ююв456877 0.8 1016997
19:00+16св117728 0.2 101568
22:00+12зсз2289100 0.6 101873
23 апреля, пт
пт2301:00+10ссз4492100 0.7 1018170
04:00+7сз5787100 1.6 1020216
07:00+7сз61086100 0.3 1021339
10:00+11сз712645 0.3 1021694
13:00+16сз610380 0.0 10191002
16:00+17ссз710265 0.0 1019998
19:00+13ссз334540 0.0 101954
22:00+11ссв32310 0.0 102214
24 апреля, сб
сб2401:00+8в347711 0.0 102380
04:00+7ссв2268100 0.0 1024106
07:00+8ююв1186100 0.3 1024152
10:00+8ююз109297 0.4 1023267
13:00+15ююз326529 0.0 1019938
16:00+17юз32595 0.0 1017779
19:00+15юз22695 0.0 101748
22:00+12ссз33672 0.0 101819
25 апреля, вс
вс2501:00+11св22675 0.0 101913
04:00+10св22825 0.0 101912
07:00+11св11806 0.0 101911
10:00+15ююв32665 0.0 1018684
13:00+19ююв44526 0.0 10161058
16:00+20ююв444849 0.0 10141107
19:00+17ююв22633 0.0 101337
22:00+13св227345 0.0 101511
26 апреля, пн
пн2601:00+13ссв22686 0.0 101512
04:00+11всв117831 0.0 101411
07:00+12ссз117798 0.0 101317
10:00+17юз2158100 0.0 1012571
13:00+20ю1253100 0.0 1011756
16:00+21ссз345476 0.1 1009858
19:00+17св117672 0.6 100921
22:00+14с228279 2.1 101116